カタログに戻る

SL-14 DEB

運用中PO
NORAD 45340·DEBRIS·🇷🇺 Russia

打ち上げ Aug 15, 1991 から Plesetsk Cosmodrome

Loading…

次のパス (今後24時間)

TLE

最新Source: Space-Track

元期: Sep 14, 2026, 09:39 UTC

1 45340U 91056CE  26257.40275691  .00006972  00000-0  11198-1 0  9998
2 45340  82.5312  42.4949 0084152 348.9244  11.0040 13.47160662316603

AllMySatでSL-14 DEBをリアルタイム追跡

Download on the App Store